Location: Dayton
(39.7590°N, 84.1920°W)
Time: 04:56:42
(UTC-04:00)

ATLAS CENTAUR R/B - Visible Passes

Search period start: 22 April 2018 00:00
Search period end: 02 May 2018 00:00
Orbit: 211 x 7040 km, 57.3° (Epoch: 09 March)

Date Brightness Start Highest point End Pass type
(mag) Time Alt. Az. Time Alt. Az. Time Alt. Az.
22 Apr 5.9 00:55:48 19° E 00:57:29 20° E 01:09:17 10° NE visible
22 Apr 4.7 03:41:20 49° SW 03:45:53 83° NW 04:17:17 10° NE visible
23 Apr 5.1 01:45:37 40° ESE 01:46:36 41° ESE 02:06:59 10° NE visible
23 Apr 5.3 04:31:09 26° W 04:40:02 63° NNW 05:16:03 10° NE visible
24 Apr 4.5 02:35:20 64° SSE 02:37:11 72° ESE 03:03:41 10° NE visible
24 Apr 6.0 05:20:52 10° W 05:35:50 54° NNW 06:16:35 10° ENE visible
25 Apr 5.7 00:39:25 22° E 00:40:22 22° E 00:53:21 10° NE visible
25 Apr 4.7 03:24:55 48° WSW 03:29:34 78° NW 04:00:56 10° NE visible
25 Apr 6.3 06:14:00 10° WNW 06:33:09 52° N 07:18:06 10° E visible
26 Apr 4.9 01:28:54 45° ESE 01:29:27 45° ESE 01:50:18 10° NE visible
26 Apr 5.5 04:14:23 24° W 04:23:42 60° NNW 04:59:41 10° ENE visible
27 Apr 4.4 02:18:17 68° S 02:20:05 78° SE 02:46:40 10° NE visible
27 Apr 6.1 05:04:14 10° W 05:19:25 53° N 06:00:14 10° ENE visible
28 Apr 5.5 00:22:04 25° E 00:22:32 25° E 00:36:26 10° NE visible
28 Apr 4.8 03:07:33 44° WSW 03:12:30 73° NW 03:43:46 10° NE visible
28 Apr 6.4 05:57:05 10° WNW 06:16:31 52° N 07:01:34 10° E visible
29 Apr 4.7 01:11:14 50° ESE 01:11:37 50° ESE 01:32:46 10° NE visible
29 Apr 5.6 03:56:41 21° W 04:06:34 58° NNW 04:42:29 10° ENE visible
29 Apr 6.1 23:14:49 11° E 23:16:03 11° E 23:18:42 10° ENE visible
30 Apr 4.3 02:00:16 68° SSW 02:02:17 84° SE 02:28:48 10° NE visible
30 Apr 6.1 04:46:48 10° W 05:02:09 52° N 05:43:02 10° ENE visible
01 May 5.3 00:03:45 28° E 00:04:01 28° E 00:18:34 10° NE visible
01 May 4.9 02:49:11 39° WSW 02:54:40 69° NW 03:25:44 10° NE visible
01 May 6.5 05:39:21 10° WNW 05:59:00 52° N 06:44:08 10° E visible
